Time,TemperatureF,DewpointF,PressureIn,WindDirection,WindDirectionDegrees,WindSpeedMPH,WindSpeedGustMPH,Humidity,HourlyPrecipIn,Conditions,Clouds,dailyrainin,SoftwareType,DateUTC
2013-05-13 00:01:00,67.0,25.0,-100.00,West,278,18.0,24.0,20,0.00,,,-99.99,,2013-05-13 00:01:00,
2013-05-13 00:11:00,67.0,25.0,-100.00,West,277,17.0,21.0,21,0.00,,,-99.99,,2013-05-13 00:11:00,
2013-05-13 00:21:00,67.0,26.0,-100.00,West,267,16.0,21.0,21,0.00,,,-99.99,,2013-05-13 00:21:00,
2013-05-13 00:32:00,66.0,25.0,-100.00,West,267,17.0,24.0,21,0.00,,,-99.99,,2013-05-13 00:32:00,
2013-05-13 00:41:00,65.0,27.0,-100.00,West,261,16.0,23.0,23,0.00,,,-99.99,,2013-05-13 00:41:00,
2013-05-13 00:51:00,65.0,26.0,-100.00,WSW,258,11.0,16.0,23,0.00,,,-99.99,,2013-05-13 00:51:00,
2013-05-13 01:01:00,66.0,26.0,-100.00,WSW,257,9.0,13.0,22,0.00,,,-99.99,,2013-05-13 01:01:00,
2013-05-13 01:11:00,65.0,27.0,-100.00,West,277,15.0,21.0,24,0.00,,,-99.99,,2013-05-13 01:11:00,
2013-05-13 01:22:00,65.0,28.0,-100.00,West,275,13.0,18.0,25,0.00,,,-99.99,,2013-05-13 01:22:00,
2013-05-13 01:31:00,65.0,28.0,-100.00,West,275,11.0,14.0,25,0.00,,,-99.99,,2013-05-13 01:31:00,
2013-05-13 01:41:00,63.0,29.0,-100.00,West,281,11.0,15.0,28,0.00,,,-99.99,,2013-05-13 01:41:00,
2013-05-13 01:52:00,62.0,29.0,-100.00,West,278,11.0,14.0,29,0.00,,,-99.99,,2013-05-13 01:52:00,
2013-05-13 02:01:00,60.0,30.0,-100.00,West,275,7.0,9.0,32,0.00,,,-99.99,,2013-05-13 02:01:00,
2013-05-13 02:11:00,60.0,30.0,-100.00,WNW,291,4.0,6.0,32,0.00,,,-99.99,,2013-05-13 02:11:00,
2013-05-13 02:21:00,59.0,30.0,-100.00,WNW,298,4.0,5.0,33,0.00,,,-99.99,,2013-05-13 02:21:00,
2013-05-13 02:32:00,58.0,29.0,-100.00,West,275,2.0,4.0,33,0.00,,,-99.99,,2013-05-13 02:32:00,
2013-05-13 02:41:00,58.0,29.0,-100.00,WNW,287,2.0,5.0,32,0.00,,,-99.99,,2013-05-13 02:41:00,
2013-05-13 02:51:00,58.0,29.0,-100.00,West,272,2.0,4.0,33,0.00,,,-99.99,,2013-05-13 02:51:00,
2013-05-13 03:02:00,57.0,28.0,-100.00,WSW,258,3.0,6.0,32,0.00,,,-99.99,,2013-05-13 03:02:00,
2013-05-13 03:11:00,57.0,28.0,-100.00,West,260,3.0,6.0,32,0.00,,,-99.99,,2013-05-13 03:11:00,
2013-05-13 03:21:00,57.0,28.0,-100.00,WSW,251,4.0,7.0,33,0.00,,,-99.99,,2013-05-13 03:21:00,
2013-05-13 03:32:00,56.0,28.0,-100.00,SW,234,3.0,6.0,34,0.00,,,-99.99,,2013-05-13 03:32:00,
2013-05-13 03:42:00,54.0,29.0,-100.00,South,182,2.0,7.0,37,0.00,,,-99.99,,2013-05-13 03:42:00,
2013-05-13 03:52:00,54.0,29.0,-100.00,SSE,168,3.0,6.0,37,0.00,,,-99.99,,2013-05-13 03:52:00,
2013-05-13 04:02:00,54.0,28.0,-100.00,South,176,4.0,7.0,36,0.00,,,-99.99,,2013-05-13 04:02:00,
2013-05-13 04:12:00,55.0,28.0,-100.00,South,176,5.0,9.0,35,0.00,,,-99.99,,2013-05-13 04:12:00,
2013-05-13 04:23:00,56.0,28.0,-100.00,South,178,5.0,7.0,34,0.00,,,-99.99,,2013-05-13 04:23:00,
2013-05-13 04:32:00,56.0,27.0,-100.00,South,175,5.0,7.0,33,0.00,,,-99.99,,2013-05-13 04:32:00,
2013-05-13 04:42:00,55.0,29.0,-100.00,SSW,206,4.0,7.0,36,0.00,,,-99.99,,2013-05-13 04:42:00,
2013-05-13 04:52:00,55.0,27.0,-100.00,SW,226,3.0,5.0,34,0.00,,,-99.99,,2013-05-13 04:52:00,
2013-05-13 05:02:00,54.0,28.0,-100.00,SSW,206,4.0,6.0,36,0.00,,,-99.99,,2013-05-13 05:02:00,
2013-05-13 05:12:00,54.0,29.0,-100.00,SSW,196,4.0,6.0,38,0.00,,,-99.99,,2013-05-13 05:12:00,
2013-05-13 05:21:00,55.0,28.0,-100.00,South,189,4.0,6.0,36,0.00,,,-99.99,,2013-05-13 05:21:00,
2013-05-13 05:32:00,53.0,29.0,-100.00,SSW,199,4.0,6.0,40,0.00,,,-99.99,,2013-05-13 05:32:00,
2013-05-13 05:42:00,54.0,30.0,-100.00,SSW,192,5.0,7.0,39,0.00,,,-99.99,,2013-05-13 05:42:00,
2013-05-13 05:51:00,53.0,29.0,-100.00,SSW,209,4.0,6.0,39,0.00,,,-99.99,,2013-05-13 05:51:00,
2013-05-13 06:01:00,52.0,29.0,-100.00,SSW,209,4.0,6.0,41,0.00,,,-99.99,,2013-05-13 06:01:00,
2013-05-13 06:11:00,53.0,28.0,-100.00,SSW,206,4.0,7.0,38,0.00,,,-99.99,,2013-05-13 06:11:00,
2013-05-13 06:21:00,54.0,27.0,-100.00,SSW,195,4.0,7.0,35,0.00,,,-99.99,,2013-05-13 06:21:00,
2013-05-13 06:31:00,56.0,27.0,-100.00,South,179,7.0,9.0,32,0.00,,,-99.99,,2013-05-13 06:31:00,
2013-05-13 06:42:00,55.0,27.0,-100.00,South,184,6.0,9.0,33,0.00,,,-99.99,,2013-05-13 06:42:00,
2013-05-13 06:52:00,53.0,29.0,-100.00,SSW,209,4.0,6.0,40,0.00,,,-99.99,,2013-05-13 06:52:00,
2013-05-13 07:01:00,52.0,28.0,-100.00,SW,236,2.0,5.0,39,0.00,,,-99.99,,2013-05-13 07:01:00,
2013-05-13 07:11:00,52.0,30.0,-100.00,WSW,241,2.0,4.0,42,0.00,,,-99.99,,2013-05-13 07:11:00,
2013-05-13 07:22:00,52.0,30.0,-100.00,South,189,2.0,6.0,43,0.00,,,-99.99,,2013-05-13 07:22:00,
2013-05-13 07:31:00,56.0,30.0,-100.00,South,175,6.0,15.0,37,0.00,,,-99.99,,2013-05-13 07:31:00,
2013-05-13 07:41:00,56.0,29.0,-100.00,SW,224,9.0,15.0,37,0.00,,,-99.99,,2013-05-13 07:41:00,
2013-05-13 07:52:00,55.0,30.0,-100.00,WSW,240,6.0,14.0,39,0.00,,,-99.99,,2013-05-13 07:52:00,
2013-05-13 08:02:00,54.0,30.0,-100.00,WSW,250,4.0,8.0,40,0.00,,,-99.99,,2013-05-13 08:02:00,
2013-05-13 08:11:00,55.0,30.0,-100.00,WSW,247,6.0,10.0,39,0.00,,,-99.99,,2013-05-13 08:11:00,
2013-05-13 08:21:00,56.0,29.0,-100.00,WSW,246,9.0,14.0,36,0.00,,,-99.99,,2013-05-13 08:21:00,
2013-05-13 08:31:00,55.0,30.0,-100.00,West,267,4.0,9.0,38,0.00,,,-99.99,,2013-05-13 08:31:00,
2013-05-13 08:42:00,54.0,30.0,-100.00,West,271,4.0,10.0,39,0.00,,,-99.99,,2013-05-13 08:42:00,
2013-05-13 08:51:00,55.0,29.0,-100.00,ESE,109,5.0,11.0,38,0.00,,,-99.99,,2013-05-13 08:51:00,
2013-05-13 09:01:00,55.0,29.0,-100.00,South,178,6.0,13.0,37,0.00,,,-99.99,,2013-05-13 09:01:00,
2013-05-13 09:11:00,55.0,29.0,-100.00,SSE,152,5.0,13.0,38,0.00,,,-99.99,,2013-05-13 09:11:00,
2013-05-13 09:21:00,55.0,29.0,-100.00,SE,145,5.0,12.0,38,0.00,,,-99.99,,2013-05-13 09:21:00,
2013-05-13 09:33:00,54.0,29.0,-100.00,East,96,4.0,11.0,38,0.00,,,-99.99,,2013-05-13 09:33:00,
2013-05-13 09:42:00,54.0,29.0,-100.00,ESE,121,4.0,11.0,38,0.00,,,-99.99,,2013-05-13 09:42:00,
2013-05-13 09:52:00,54.0,29.0,-100.00,South,185,4.0,9.0,38,0.00,,,-99.99,,2013-05-13 09:52:00,
2013-05-13 10:03:00,55.0,29.0,-100.00,SW,216,7.0,13.0,37,0.00,,,-99.99,,2013-05-13 10:03:00,
2013-05-13 10:12:00,55.0,29.0,-100.00,SW,226,9.0,14.0,37,0.00,,,-99.99,,2013-05-13 10:12:00,
2013-05-13 10:22:00,55.0,29.0,-100.00,SW,215,7.0,16.0,36,0.00,,,-99.99,,2013-05-13 10:22:00,
2013-05-13 10:32:00,55.0,28.0,-100.00,SSW,202,7.0,14.0,35,0.00,,,-99.99,,2013-05-13 10:32:00,
2013-05-13 10:42:00,56.0,28.0,-100.00,SSW,198,7.0,14.0,35,0.00,,,-99.99,,2013-05-13 10:42:00,
2013-05-13 10:52:00,55.0,28.0,-100.00,SSW,206,7.0,17.0,35,0.00,,,-99.99,,2013-05-13 10:52:00,
2013-05-13 11:02:00,56.0,28.0,-100.00,SW,219,10.0,17.0,34,0.00,,,-99.99,,2013-05-13 11:02:00,
2013-05-13 11:12:00,56.0,28.0,-100.00,SSW,212,9.0,15.0,35,0.00,,,-99.99,,2013-05-13 11:12:00,
2013-05-13 11:21:00,56.0,28.0,-100.00,SW,219,8.0,14.0,35,0.00,,,-99.99,,2013-05-13 11:21:00,
2013-05-13 11:32:00,55.0,29.0,-100.00,South,186,6.0,17.0,36,0.00,,,-99.99,,2013-05-13 11:32:00,
2013-05-13 11:42:00,55.0,28.0,-100.00,SSW,198,7.0,17.0,35,0.00,,,-99.99,,2013-05-13 11:42:00,
2013-05-13 11:51:00,55.0,29.0,-100.00,SSW,212,7.0,16.0,36,0.00,,,-99.99,,2013-05-13 11:51:00,
2013-05-13 12:01:00,54.0,29.0,-100.00,SSW,205,5.0,11.0,39,0.00,,,-99.99,,2013-05-13 12:01:00,
2013-05-13 12:11:00,54.0,30.0,-100.00,ESE,112,4.0,10.0,40,0.00,,,-99.99,,2013-05-13 12:11:00,
2013-05-13 12:21:00,53.0,30.0,-100.00,ESE,112,3.0,8.0,41,0.00,,,-99.99,,2013-05-13 12:21:00,
2013-05-13 12:32:00,53.0,30.0,-100.00,ESE,114,4.0,12.0,40,0.00,,,-99.99,,2013-05-13 12:32:00,
2013-05-13 12:42:00,54.0,30.0,-100.00,ENE,71,4.0,11.0,40,0.00,,,-99.99,,2013-05-13 12:42:00,
2013-05-13 12:51:00,55.0,30.0,-100.00,South,179,6.0,13.0,39,0.00,,,-99.99,,2013-05-13 12:51:00,
2013-05-13 13:01:00,55.0,30.0,-100.00,SSW,213,7.0,15.0,38,0.00,,,-99.99,,2013-05-13 13:01:00,
2013-05-13 13:11:00,56.0,30.0,-100.00,SW,217,8.0,14.0,36,0.00,,,-99.99,,2013-05-13 13:11:00,
2013-05-13 13:21:00,57.0,31.0,-100.00,SW,233,8.0,14.0,37,0.00,,,-99.99,,2013-05-13 13:21:00,
2013-05-13 13:31:00,59.0,30.0,-100.00,WSW,250,6.0,13.0,33,0.00,,,-99.99,,2013-05-13 13:31:00,
2013-05-13 13:41:00,60.0,31.0,-100.00,WSW,251,8.0,14.0,32,0.00,,,-99.99,,2013-05-13 13:41:00,
2013-05-13 13:52:00,61.0,30.0,-100.00,WSW,254,10.0,15.0,31,0.00,,,-99.99,,2013-05-13 13:52:00,
2013-05-13 14:02:00,61.0,31.0,-100.00,WSW,251,11.0,17.0,32,0.00,,,-99.99,,2013-05-13 14:02:00,
2013-05-13 14:11:00,62.0,31.0,-100.00,WSW,257,12.0,18.0,31,0.00,,,-99.99,,2013-05-13 14:11:00,
2013-05-13 14:22:00,62.0,31.0,-100.00,WSW,257,12.0,19.0,31,0.00,,,-99.99,,2013-05-13 14:22:00,
2013-05-13 14:31:00,62.0,31.0,-100.00,West,260,13.0,18.0,31,0.00,,,-99.99,,2013-05-13 14:31:00,
2013-05-13 14:41:00,63.0,31.0,-100.00,West,260,14.0,18.0,30,0.00,,,-99.99,,2013-05-13 14:41:00,
2013-05-13 14:51:00,63.0,30.0,-100.00,West,261,14.0,19.0,29,0.00,,,-99.99,,2013-05-13 14:51:00,
2013-05-13 15:01:00,64.0,31.0,-100.00,WSW,254,12.0,17.0,29,0.00,,,-99.99,,2013-05-13 15:01:00,
2013-05-13 15:11:00,64.0,31.0,-100.00,WSW,258,12.0,17.0,28,0.00,,,-99.99,,2013-05-13 15:11:00,
2013-05-13 15:21:00,65.0,30.0,-100.00,WSW,258,11.0,17.0,27,0.00,,,-99.99,,2013-05-13 15:21:00,
2013-05-13 15:31:00,65.0,31.0,-100.00,WSW,254,10.0,16.0,27,0.00,,,-99.99,,2013-05-13 15:31:00,
2013-05-13 15:42:00,65.0,30.0,-100.00,West,270,14.0,21.0,27,0.00,,,-99.99,,2013-05-13 15:42:00,
2013-05-13 15:52:00,65.0,30.0,-100.00,West,264,14.0,17.0,27,0.00,,,-99.99,,2013-05-13 15:52:00,
2013-05-13 16:03:00,66.0,31.0,-100.00,West,264,11.0,17.0,27,0.00,,,-99.99,,2013-05-13 16:03:00,
2013-05-13 16:11:00,66.0,30.0,-100.00,West,267,12.0,18.0,25,0.00,,,-99.99,,2013-05-13 16:11:00,
2013-05-13 16:21:00,66.0,31.0,-100.00,West,270,11.0,16.0,26,0.00,,,-99.99,,2013-05-13 16:21:00,
2013-05-13 16:33:00,67.0,30.0,-100.00,West,267,11.0,17.0,25,0.00,,,-99.99,,2013-05-13 16:33:00,
2013-05-13 16:42:00,68.0,31.0,-100.00,West,274,12.0,18.0,26,0.00,,,-99.99,,2013-05-13 16:42:00,
2013-05-13 16:52:00,67.0,31.0,-100.00,West,274,11.0,17.0,26,0.00,,,-99.99,,2013-05-13 16:52:00,
2013-05-13 17:02:00,67.0,31.0,-100.00,West,267,12.0,19.0,25,0.00,,,-99.99,,2013-05-13 17:02:00,
2013-05-13 17:12:00,67.0,30.0,-100.00,WSW,256,9.0,16.0,24,0.00,,,-99.99,,2013-05-13 17:12:00,
2013-05-13 17:21:00,68.0,30.0,-100.00,West,267,11.0,16.0,24,0.00,,,-99.99,,2013-05-13 17:21:00,
2013-05-13 17:32:00,68.0,30.0,-100.00,West,267,11.0,19.0,24,0.00,,,-99.99,,2013-05-13 17:32:00,
2013-05-13 17:42:00,69.0,29.0,-100.00,West,261,7.0,16.0,23,0.00,,,-99.99,,2013-05-13 17:42:00,
2013-05-13 17:54:00,69.0,31.0,-100.00,WSW,248,9.0,17.0,24,0.00,,,-99.99,,2013-05-13 17:54:00,
2013-05-13 18:03:00,69.0,30.0,-100.00,WSW,250,9.0,17.0,23,0.00,,,-99.99,,2013-05-13 18:03:00,
2013-05-13 18:12:00,68.0,31.0,-100.00,WNW,287,13.0,20.0,25,0.00,,,-99.99,,2013-05-13 18:12:00,
2013-05-13 18:23:00,69.0,29.0,-100.00,West,278,13.0,18.0,23,0.00,,,-99.99,,2013-05-13 18:23:00,
2013-05-13 18:32:00,69.0,31.0,-100.00,WNW,289,11.0,17.0,24,0.00,,,-99.99,,2013-05-13 18:32:00,
2013-05-13 18:42:00,69.0,31.0,-100.00,West,265,9.0,17.0,25,0.00,,,-99.99,,2013-05-13 18:42:00,
2013-05-13 18:51:00,70.0,31.0,-100.00,WSW,240,9.0,19.0,23,0.00,,,-99.99,,2013-05-13 18:51:00,
2013-05-13 19:01:00,69.0,29.0,-100.00,West,264,12.0,20.0,22,0.00,,,-99.99,,2013-05-13 19:01:00,
2013-05-13 19:11:00,70.0,30.0,-100.00,West,264,10.0,18.0,23,0.00,,,-99.99,,2013-05-13 19:11:00,
2013-05-13 19:21:00,69.0,29.0,-100.00,West,260,12.0,21.0,23,0.00,,,-99.99,,2013-05-13 19:21:00,
2013-05-13 19:32:00,71.0,29.0,-100.00,SW,232,11.0,21.0,21,0.00,,,-99.99,,2013-05-13 19:32:00,
2013-05-13 19:43:00,70.0,30.0,-100.00,West,264,12.0,25.0,23,0.00,,,-99.99,,2013-05-13 19:43:00,
2013-05-13 19:53:00,69.0,29.0,-100.00,West,265,11.0,21.0,22,0.00,,,-99.99,,2013-05-13 19:53:00,
2013-05-13 20:01:00,71.0,31.0,-100.00,West,260,12.0,19.0,23,0.00,,,-99.99,,2013-05-13 20:01:00,
2013-05-13 20:11:00,71.0,31.0,-100.00,WSW,258,11.0,18.0,23,0.00,,,-99.99,,2013-05-13 20:11:00,
2013-05-13 20:23:00,72.0,32.0,-100.00,WSW,240,10.0,19.0,22,0.00,,,-99.99,,2013-05-13 20:23:00,
2013-05-13 20:33:00,72.0,31.0,-100.00,SW,236,13.0,22.0,22,0.00,,,-99.99,,2013-05-13 20:33:00,
2013-05-13 20:44:00,72.0,30.0,-100.00,WSW,251,11.0,18.0,22,0.00,,,-99.99,,2013-05-13 20:44:00,
2013-05-13 20:53:00,72.0,28.0,-100.00,WSW,254,12.0,21.0,19,0.00,,,-99.99,,2013-05-13 20:53:00,
2013-05-13 21:03:00,74.0,29.0,-100.00,SW,227,11.0,23.0,19,0.00,,,-99.99,,2013-05-13 21:03:00,
2013-05-13 21:14:00,73.0,30.0,-100.00,SSW,212,7.0,15.0,20,0.00,,,-99.99,,2013-05-13 21:14:00,
2013-05-13 21:23:00,73.0,30.0,-100.00,WSW,250,10.0,19.0,20,0.00,,,-99.99,,2013-05-13 21:23:00,
2013-05-13 21:33:00,73.0,31.0,-100.00,WSW,240,11.0,22.0,21,0.00,,,-99.99,,2013-05-13 21:33:00,
2013-05-13 21:43:00,73.0,29.0,-100.00,SW,234,12.0,20.0,20,0.00,,,-99.99,,2013-05-13 21:43:00,
2013-05-13 21:53:00,72.0,29.0,-100.00,WSW,253,11.0,18.0,20,0.00,,,-99.99,,2013-05-13 21:53:00,
2013-05-13 22:02:00,72.0,29.0,-100.00,WSW,250,12.0,19.0,20,0.00,,,-99.99,,2013-05-13 22:02:00,
2013-05-13 22:12:00,72.0,29.0,-100.00,West,261,12.0,21.0,20,0.00,,,-99.99,,2013-05-13 22:12:00,
2013-05-13 22:23:00,73.0,30.0,-100.00,WSW,248,11.0,19.0,20,0.00,,,-99.99,,2013-05-13 22:23:00,
2013-05-13 22:32:00,73.0,29.0,-100.00,SW,230,10.0,19.0,19,0.00,,,-99.99,,2013-05-13 22:32:00,
2013-05-13 22:42:00,73.0,28.0,-100.00,WSW,243,11.0,19.0,19,0.00,,,-99.99,,2013-05-13 22:42:00,
2013-05-13 22:52:00,73.0,28.0,-100.00,West,268,11.0,22.0,19,0.00,,,-99.99,,2013-05-13 22:52:00,
2013-05-13 23:02:00,73.0,28.0,-100.00,WSW,244,7.0,16.0,19,0.00,,,-99.99,,2013-05-13 23:02:00,
2013-05-13 23:12:00,73.0,29.0,-100.00,WSW,246,9.0,16.0,20,0.00,,,-99.99,,2013-05-13 23:12:00,
2013-05-13 23:23:00,72.0,29.0,-100.00,WSW,247,10.0,19.0,20,0.00,,,-99.99,,2013-05-13 23:23:00,
2013-05-13 23:33:00,73.0,30.0,-100.00,SW,219,7.0,16.0,21,0.00,,,-99.99,,2013-05-13 23:33:00,
2013-05-13 23:42:00,73.0,28.0,-100.00,SW,227,9.0,22.0,19,0.00,,,-99.99,,2013-05-13 23:42:00,
2013-05-13 23:53:00,73.0,29.0,-100.00,WSW,240,9.0,16.0,20,0.00,,,-99.99,,2013-05-13 23:53:00,